sat.trackr.live / text

‹ back to catalog

IONOSFERA-M 3

NORAD 64876 · 2025-155A

PAYLOAD ACTIVE UNKNOWN

§ Identity

Operator
Country
CIS
Launch date
2025-07-25
Launch site
VOSTO
Launch vehicle
Mass (kg)
RCS (m²)

Purposes: earth_obs

External: N2YO · Heavens-Above · Gunter

§ Orbital elements

Epoch: 2026-09-19T23:43:33.554784Z

Period
101.30 min
Inclination
98.6149°
Eccentricity
0.0000882
Mean motion
14.21499906 rev/d
Perigee alt
819.6 km
Apogee alt
820.9 km
Semi-major
7,198.4 km
B*
3.6244e-5
RAAN
222.5539°
Arg perigee
5.7271°
Mean anomaly
354.3916°
Rev number
5,987

§ Raw data

IONOSFERA-M 31 64876U 25155A   26262.98858281  .00000036  00000+0  36244-4 0  99972 64876  98.6149 222.5539 0000882   5.7271 354.3916 14.21499906 59873

JSON: /api/v1/satellites/64876 · /tle

For live sub-satellite position, see the globe view (requires WebGL).

§ Visibility from observer

Set your observer location to see the next 7 days of passes ≥ 10°. The values pass through the URL so the page stays shareable.

No JS? Fill the form by hand. The geolocation button needs JavaScript.

§ Radio — SatNOGS DB

ModeDescriptionDownlinkUplink
FM Telemetry 399.919 MHz

1 transmitter · refreshed weekly from db.satnogs.org